Lid_Strength_Index
1 1 1 1 1 1 1 1 1 0 0 0 0 0 0 0 0 2 5 1 1 -2 -1 2 3 3 3 5 5 6 10 12 12 12 11 9 10 8 8 10 8 8 9 7 6
1 1 1 1 1 1 0 1 0 0 0 0 0 0 0 1 2 3 1 -1 -1 -1 3 5 4 4 6 5 6 8 10 11 9 10 10 9 10 9 9 9 9 8 7 6 6
1 1 1 0 1 1 1 1 1 1 0 1 1 0 1 1 4 5 0 -0 -0 0 3 3 4 5 6 6 7 7 10 9 8 7 7 8 8 7 9 9 9 9 7 6 6
1 1 1 1 1 1 1 1 0 0 0 1 1 1 1 2 10 3 0 0 0 1 3 4 5 6 7 8 6 9 7 7 7 7 7 8 7 8 8 9 7 7 6 7 7
2 2 2 2 2 1 1 1 0 0 0 1 1 1 2 6 5 2 0 1 1 1 4 4 6 6 8 8 7 8 8 6 6 7 7 7 8 9 8 7 7 6 6 7 7
3 3 2 2 2 2 2 1 1 0 1 1 1 1 4 9 2 1 2 2 2 2 3 4 5 5 7 7 8 7 7 7 7 7 7 8 9 8 8 6 7 7 7 7 7
3 3 3 3 3 3 2 2 1 1 1 2 1 2 5 6 2 1 2 3 2 2 3 3 3 5 6 7 6 6 9 9 8 7 8 8 10 10 8 7 8 7 7 6 6
4 4 4 4 4 4 3 3 2 2 2 2 2 3 7 2 1 2 2 2 1 1 2 2 2 4 6 6 7 9 9 12 8 8 8 9 12 8 7 8 9 8 7 6 6
4 4 4 5 5 4 3 3 2 3 3 2 4 4 7 2 4 2 2 3 3 2 2 3 3 6 6 9 13 10 15 12 10 8 9 10 12 9 7 8 9 9 8 7 7
4 4 5 5 5 4 3 2 2 4 3 3 4 7 6 6 4 3 2 2 3 4 4 5 6 9 9 11 17 15 14 12 13 9 9 11 11 9 8 8 10 9 9 8 7
4 4 5 4 4 4 4 4 7 8 7 9 8 9 6 4 3 4 2 3 3 5 9 7 11 13 10 9 9 11 12 13 11 9 12 11 11 10 9 10 10 10 9 8 7
4 5 5 4 4 3 4 7 8 7 10 7 7 7 6 5 8 6 3 7 6 9 8 10 13 9 8 9 10 12 13 13 11 10 11 11 12 10 10 9 9 9 10 9 7
5 5 5 4 4 4 5 6 4 5 10 9 8 8 7 6 8 7 6 6 8 9 9 12 9 8 8 10 11 12 13 13 13 11 11 12 14 12 10 9 8 8 8 8 8
5 5 5 5 5 5 6 4 4 5 13 13 10 8 6 6 9 5 5 7 8 10 9 10 8 9 10 10 10 15 11 11 11 14 18 13 19 13 12 11 10 9 10 9 9
5 5 5 5 7 7 5 4 4 7 21 11 9 4 5 8 7 7 5 7 11 9 9 12 10 10 11 10 9 11 9 10 11 15 18 15 18 14 12 12 11 10 10 10 9
6 6 5 5 5 5 4 4 6 14 21 15 9 9 9 8 8 7 7 6 7 9 9 10 7 8 10 9 9 9 11 12 14 15 21 15 15 15 14 12 11 10 10 9 9
6 5 6 5 8 4 4 6 14 19 12 13 12 9 9 10 10 9 10 11 12 15 14 11 10 9 8 11 10 10 14 20 21 22 20 14 17 15 12 11 10 11 10 10 9
5 5 5 5 4 4 6 11 19 15 14 10 10 10 11 10 10 10 11 12 10 12 15 16 18 11 9 10 12 12 14 18 24 22 20 14 18 14 11 10 9 9 10 9 9
5 6 7 5 4 5 9 16 16 14 12 11 11 12 12 10 11 11 11 12 11 10 15 16 15 9 9 9 10 13 16 12 17 16 19 17 14 12 10 10 10 10 10 10 9
7 7 8 5 4 7 11 15 13 11 10 10 13 12 14 13 13 13 13 12 11 9 9 12 17 11 10 10 10 12 11 16 15 21 21 18 16 16 13 12 11 11 10 10 9
7 11 7 4 5 10 15 14 12 9 9 11 11 12 12 12 12 13 13 11 10 9 10 11 13 14 11 12 12 13 14 13 13 16 21 21 18 12 11 10 11 11 10 10 9
8 14 7 5 12 11 13 12 11 10 8 9 9 10 11 11 12 13 13 12 9 9 11 10 12 15 14 11 10 11 12 12 17 18 17 18 18 10 10 10 10 10 9 10 9
11 11 7 7 15 14 12 12 11 11 10 10 10 9 9 11 13 12 11 9 9 9 11 9 13 17 15 13 11 13 11 11 12 14 16 20 17 11 10 10 10 11 10 10 10
11 15 11 9 11 13 14 13 13 9 10 9 10 9 10 11 10 12 11 9 9 9 7 8 11 14 17 14 12 14 12 11 12 18 17 15 14 12 11 11 12 11 10 11 10
11 13 11 15 14 13 13 13 14 13 10 9 11 11 11 13 12 12 10 10 9 9 9 9 14 13 12 11 11 12 12 12 13 13 16 14 14 12 11 12 12 11 10 10 9
13 13 11 13 12 13 13 14 14 12 12 12 12 11 11 13 11 13 11 11 12 11 11 9 14 12 14 11 11 13 12 12 12 12 12 13 14 10 11 11 11 11 10 10 9
9 9 11 13 14 14 14 13 12 11 11 11 11 12 12 11 10 10 10 10 10 12 13 12 13 14 17 13 14 16 13 13 12 11 12 15 12 11 12 11 12 12 11 10 9